Вернуться в каталог

DIWEI ZHINENG YINGJI 1

АктивенНаукаSSO
NORAD 57582·PAYLOAD·🇨🇳 China
Это название спутника еще не подтверждено официальными источниками.

Запущен Aug 10, 2023 с Jiuquan Satellite Launch Center

Loading…

Ближайшие Пролёты (ближайшие 24 часа)

TLE

СвежийSource: Space-Track

Эпоха: Sep 14, 2026, 13:19 UTC

1 57582U 23117C   26257.55506742  .00019616  00000-0  42666-3 0  9997
2 57582  97.4007 339.9720 0004763 268.0446  92.0257 15.44346020172340

Отслеживайте DIWEI ZHINENG YINGJI 1 в реальном времени с AllMySat

Download on the App Store